Home   Weather   Goch   Past weeks

Flag for Germany Past Weather in Goch, North Rhine-Westphalia, Germany — Yesterday and Last 2 Weeks

46 °F


Feels Like: 46 °F
Forecast: 41 / 54 °F
Wind: 2 mph from North

Location: Niederrhein

Current Time: Oct 25, 2016 at 8:44:22 AM

Latest Report: Oct 25, 2016 at 7:50 AM

Visibility: 2 mi

Pressure: 30.12 "Hg

Humidity: 100%

Dew Point: 46 °F

Location of GochLocation

Past Weather in Goch — Graph


Goch Temperature Yesterday

Maximum temperature yesterday: 48 °F (at 12:50 PM)
Minimum temperature yesterday: 43 °F (at 4:50 AM)
Average temperature yesterday: 46 °F

High & Low Weather Summary for the Past Weeks

High66 °F (Oct 16, 2:50 PM)100% (Oct 10, 7:20 AM)30.27 "Hg (Oct 10, 7:20 AM)
Low32 °F (Oct 23, 4:50 AM)51% (Oct 10, 3:50 PM)29.65 "Hg (Oct 15, 4:50 AM)
Average49 °F90%30.00 "Hg
* Reported Oct 10 7:20 AM — Oct 25 7:20 AM, Goch, Weather by CustomWeather, © 2016

Note: Actual official high and low records may vary slightly from our data, if they occured in-between our weather recording intervals... More about our weather records


Goch Weather History for the Previous 24 Hours

Scroll right to see more
Time TempWeatherWind HumidityBarometerVisibility
7:20 AM
Tue, Oct 25
46 °FFog.1 mph100%30.09 "Hg2 mi
6:50 AM46 °FFog.3 mph100%30.09 "Hg2 mi
6:20 AM46 °FFog.3 mph100%30.07 "Hg2 mi
5:50 AM46 °FFog.3 mph100%30.07 "Hg1 mi
4:50 AM48 °FFog.2 mph100%30.07 "Hg1 mi
11:50 PM
Mon, Oct 24
48 °FFog.No wind100%29.98 "Hg1 mi
11:20 PM48 °FFog.No wind100%29.98 "Hg1 mi
10:50 PM48 °FFog.1 mph100%29.98 "Hg1 mi
10:20 PM48 °FFog.No wind100%29.98 "Hg1 mi
9:50 PM48 °FFog.2 mph100%29.95 "Hg2 mi
9:20 PM48 °FFog.2 mph100%29.95 "Hg2 mi
8:50 PM48 °FFog.2 mph100%29.95 "Hg2 mi
8:20 PM48 °FFog.1 mph100%29.95 "Hg2 mi
7:50 PM48 °FFog.2 mph100%29.95 "Hg2 mi
7:20 PM48 °FFog.2 mph100%29.95 "Hg2 mi
6:50 PM48 °FFog.2 mph100%29.92 "Hg2 mi
6:20 PM48 °FFog.3 mph100%29.92 "Hg2 mi
5:50 PM48 °FLight rain. Fog.3 mph100%29.92 "Hg2 mi
5:20 PM48 °FLight rain. Fog.3 mph100%29.92 "Hg2 mi
4:50 PM48 °FLight rain. Fog.5 mph100%29.92 "Hg2 mi
4:20 PM48 °FLight rain. Fog.3 mph100%29.92 "Hg2 mi
3:50 PM46 °FLight rain. Fog.3 mph100%29.92 "Hg2 mi
3:20 PM46 °FLight rain. Fog.3 mph100%29.89 "Hg2 mi
2:50 PM46 °FLight rain. Fog.3 mph100%29.89 "Hg1 mi
2:20 PM46 °FLight rain. Fog.5 mph100%29.89 "Hg2 mi
1:50 PM48 °FLight rain. Partly sunny.5 mph100%29.89 "Hg4 mi
1:20 PM46 °FBroken clouds.6 mph100%29.89 "Hg5 mi
12:50 PM48 °FPartly sunny.6 mph100%29.89 "Hg5 mi
12:20 PM46 °FPartly sunny.5 mph100%29.89 "Hg4 mi
11:50 AM46 °FScattered clouds.5 mph100%29.89 "Hg4 mi
11:20 AM46 °FClear.5 mph100%29.89 "Hg4 mi
10:50 AM45 °FClear.6 mph100%29.89 "Hg4 mi
10:20 AM45 °FFog.3 mph100%29.92 "Hg3 mi
9:50 AM45 °FFog.3 mph100%29.92 "Hg3 mi
9:20 AM45 °FFog.5 mph100%29.89 "Hg3 mi
8:50 AM45 °FFog.5 mph100%29.89 "Hg3 mi
8:20 AM43 °FFog.3 mph100%29.89 "Hg3 mi
Weather by CustomWeather, © 2016

See weather overviewHow to use our weather pages